Dewpoint
73 72 73 72 70 69 68 69 71 71 73 72 73 74 73 73 73 70 69 66 64 63 63 63 66 67 66 66 66 68 67 69 68 69 71 72 73 75 75 75 75 75 76 76 76 77 77 77 77 77 77 76 76 75 74 73 73 73 73 74 75 74 74 74 73 73 73 72 72 72 72 72 72 71 71 71 71 71 70 69 71 71 71 70 70
71 71 71 71 70 72 74 71 71 72 74 72 75 75 73 73 71 71 70 69 65 68 69 61 63 63 65 65 64 63 68 67 66 67 70 71 73 76 74 76 75 75 75 76 76 76 76 77 77 77 77 77 76 76 74 73 73 72 73 74 74 74 74 73 73 73 73 73 73 72 72 72 73 72 72 72 72 71 70 70 70 70 71 70 70
70 70 71 70 72 72 71 71 71 72 76 74 76 74 74 71 71 71 71 71 70 65 67 64 63 61 64 62 61 64 65 65 67 68 69 72 72 74 76 75 76 75 75 75 76 75 76 76 77 77 77 78 77 76 75 73 74 73 73 74 74 74 74 73 73 73 72 72 71 71 71 71 71 71 72 71 71 71 70 71 71 70 70 69 69
71 71 70 70 73 72 72 72 72 72 76 73 73 74 75 73 74 74 74 73 70 71 69 65 65 63 62 59 62 63 64 63 63 63 66 70 71 73 74 76 77 75 74 74 75 77 76 76 77 77 77 77 77 77 75 73 73 74 73 73 74 74 74 74 73 73 73 72 71 71 70 70 70 70 70 70 70 70 70 71 71 70 69 69 68
70 71 73 70 72 70 71 73 73 76 74 74 73 74 75 72 70 73 70 73 71 69 67 64 63 65 61 59 62 61 63 63 60 61 64 67 70 70 74 76 77 78 76 76 75 75 75 76 76 76 77 77 77 77 76 74 73 74 73 73 74 74 74 74 73 73 72 72 71 71 71 71 71 70 70 70 70 70 70 70 69 69 69 69 68
71 72 71 70 72 73 72 74 73 74 74 74 74 75 73 72 69 74 75 74 71 69 68 64 62 63 63 62 64 63 64 61 62 63 63 64 69 70 70 72 75 74 76 78 78 77 76 76 76 77 75 76 77 77 77 75 73 74 74 74 73 73 73 74 73 73 72 72 71 71 71 71 71 71 70 70 70 69 70 70 70 70 69 68 67
74 70 72 74 72 72 75 75 75 75 73 74 75 75 72 72 75 71 71 71 69 70 66 65 64 64 65 66 60 62 64 66 68 65 64 68 68 64 68 72 73 74 76 76 79 79 78 76 75 76 76 76 76 77 77 76 74 74 74 74 73 74 73 73 72 71 71 71 71 71 71 71 70 70 70 70 70 70 69 69 70 69 69 69 68
76 78 76 74 74 72 72 76 76 75 77 78 77 75 73 75 74 74 69 69 71 66 67 65 64 61 67 66 66 70 66 64 63 61 61 66 64 67 70 70 72 73 77 76 76 76 80 77 77 76 77 76 76 77 77 76 74 73 74 73 73 74 72 72 72 72 72 72 71 72 71 71 70 70 70 70 70 69 69 69 69 69 69 68 68
76 78 76 75 73 73 74 75 76 76 79 73 70 73 71 68 72 75 71 70 71 69 67 68 64 64 63 63 65 70 68 69 67 66 70 69 68 66 67 68 73 72 75 74 74 75 78 79 77 77 76 77 76 76 77 77 75 74 74 74 74 74 74 73 72 72 72 72 71 71 71 71 70 70 70 70 69 69 69 69 68 68 69 68 67
76 77 78 76 75 73 74 76 78 79 76 75 71 71 75 70 71 76 74 75 73 70 69 72 63 61 65 63 66 67 67 68 70 77 68 68 69 68 69 70 70 68 70 71 70 73 76 77 79 79 79 77 78 78 76 76 76 74 74 74 74 74 74 73 73 73 72 71 71 71 71 71 70 70 70 69 69 68 68 69 69 69 68 68 67
75 78 78 78 76 76 77 76 77 78 77 75 73 76 73 74 71 68 76 72 75 72 70 71 69 69 68 64 66 68 71 70 75 70 70 67 68 72 67 70 72 72 70 71 72 73 74 75 75 75 78 79 77 78 77 77 77 74 74 74 74 74 73 73 74 73 72 71 71 71 71 71 70 70 69 69 69 68 68 69 68 68 68 68 68
75 76 77 77 77 77 77 78 78 77 77 74 75 73 73 71 72 68 68 73 73 73 69 68 67 67 71 68 65 65 68 69 68 69 71 68 72 72 68 71 70 69 67 70 70 70 73 75 78 75 76 79 79 77 78 77 76 74 73 74 74 74 73 73 74 74 73 72 71 71 71 71 70 70 69 68 69 68 68 68 68 68 68 68 68
76 76 76 78 78 77 78 77 77 79 77 76 76 73 76 74 76 77 70 72 69 70 69 66 66 67 68 65 64 67 73 70 67 66 66 70 68 70 70 70 69 68 70 69 70 69 71 75 76 77 75 79 78 79 79 78 77 76 74 74 74 74 73 73 73 74 73 72 72 71 71 71 70 69 68 68 68 68 68 68 68 68 68 68 68
76 77 76 77 78 77 78 77 78 78 78 79 78 81 75 71 73 72 70 69 72 68 71 69 67 64 62 67 70 65 72 66 65 69 69 71 70 66 65 64 63 65 69 70 72 70 69 73 74 75 75 78 76 75 78 79 78 77 75 73 74 74 74 73 73 74 74 73 72 71 71 71 70 70 69 69 68 68 68 68 68 68 68 69 69
76 77 78 78 78 78 79 79 76 77 78 77 77 76 75 73 71 73 71 71 71 69 69 69 66 68 70 65 63 62 68 70 70 70 68 70 68 64 66 63 63 63 66 66 69 72 72 73 72 73 76 77 75 76 76 79 78 78 76 74 74 74 74 74 73 73 74 73 72 72 71 71 71 70 70 70 69 69 69 69 69 69 69 69 69
75 74 76 76 77 78 77 77 78 78 78 77 77 76 75 73 72 75 73 68 67 69 73 71 68 66 60 65 65 66 61 64 66 67 67 69 67 67 65 64 63 63 70 68 66 70 73 74 71 72 73 76 76 75 75 76 80 79 78 75 75 75 74 74 73 73 74 74 73 72 72 71 71 71 71 70 70 69 69 69 69 69 69 69 69
74 74 77 76 77 77 77 77 78 78 79 77 77 76 74 73 75 75 73 72 71 71 73 70 67 68 69 63 62 60 61 63 62 65 67 64 66 67 67 67 64 68 68 70 69 67 73 72 71 72 74 73 74 74 76 77 79 80 78 76 75 74 74 74 73 73 74 74 74 73 72 72 72 71 71 71 70 70 70 69 69 69 69 69 69
74 73 76 78 78 77 76 77 78 77 79 76 77 75 74 73 74 75 74 75 73 73 72 75 72 74 73 69 65 60 64 67 63 63 69 69 64 65 66 63 67 67 68 68 66 67 72 67 68 72 74 74 73 75 73 73 81 79 78 77 76 74 74 75 74 74 74 74 74 74 73 72 72 72 72 71 71 70 70 70 70 70 69 70 69
74 74 75 77 77 76 77 78 77 78 77 76 75 72 72 74 77 76 76 77 76 71 72 72 75 74 70 68 71 69 68 66 64 66 62 66 70 67 63 64 73 73 71 67 69 67 67 68 68 67 75 74 73 72 73 73 80 79 80 79 77 76 74 75 76 74 74 74 74 74 74 73 73 72 72 72 71 70 70 70 70 70 70 70 69
73 74 74 76 76 76 77 76 76 77 77 73 72 74 76 76 77 77 79 79 76 72 72 73 70 72 75 65 66 65 65 65 66 64 63 61 63 67 65 64 70 72 72 71 68 66 67 68 70 69 70 72 73 73 72 72 75 77 79 79 79 77 75 75 75 75 75 74 74 74 74 74 73 73 72 72 72 71 70 70 70 70 70 70 69
75 74 76 76 76 76 75 75 76 77 79 74 74 75 75 75 76 77 76 75 76 76 74 73 72 71 73 66 65 65 68 69 69 67 67 63 63 64 65 67 66 69 71 72 69 68 70 70 72 71 72 72 72 73 74 76 76 75 76 79 79 78 76 75 75 75 75 74 74 74 73 74 74 74 73 72 72 72 71 71 71 71 69 70 70
74 76 75 75 76 76 76 74 75 74 76 73 73 74 74 74 76 76 76 74 76 76 75 75 74 73 72 72 68 68 69 69 70 68 68 66 63 62 64 63 64 68 69 70 70 69 72 72 70 71 71 73 73 74 75 75 75 76 78 79 80 79 78 75 74 75 75 75 74 74 74 74 74 75 74 73 73 73 72 71 71 71 71 70 70
73 75 75 74 75 76 75 74 73 78 77 74 73 73 74 73 73 76 77 76 77 76 75 75 75 75 71 73 70 67 66 65 67 68 65 66 66 66 65 65 66 65 69 70 71 71 73 72 72 74 73 73 74 75 76 77 77 77 78 79 80 79 78 77 75 75 76 76 75 75 74 74 74 74 75 74 74 74 73 72 71 71 71 71 70
73 74 73 73 74 75 75 74 76 74 75 75 74 73 72 73 74 75 76 77 77 77 74 72 72 75 72 70 69 68 70 69 70 68 66 68 66 65 66 68 68 69 71 71 70 71 72 72 73 73 72 73 74 76 76 76 76 77 77 78 79 80 79 78 77 76 75 75 76 75 75 75 74 74 74 74 74 75 74 73 72 71 71 72 72
71 72 73 72 74 74 73 73 75 74 75 77 75 77 76 75 75 75 75 75 76 74 74 75 73 71 72 72 69 68 68 69 69 69 68 71 69 68 68 69 67 67 70 71 70 71 71 72 72 74 74 74 75 76 76 76 74 77 79 76 77 80 79 78 78 77 76 75 75 75 75 75 75 74 75 75 74 74 74 74 73 72 72 72 72
72 71 71 71 72 74 74 74 74 75 76 77 77 77 76 76 76 74 74 75 76 75 75 74 73 72 71 69 68 72 68 69 70 70 69 69 68 66 65 70 68 67 70 69 70 68 70 73 73 74 75 74 74 74 73 72 73 76 78 75 75 76 79 79 79 78 77 76 75 75 75 75 75 75 75 75 74 74 74 74 74 74 73 73 73
70 71 71 71 70 73 74 74 74 76 76 78 78 77 78 76 77 75 75 76 75 76 75 74 71 70 71 69 71 70 69 68 69 70 71 70 69 69 68 66 66 68 67 69 69 67 66 70 74 73 73 74 73 73 73 73 74 76 78 73 74 75 76 78 79 79 77 77 77 76 76 74 75 75 75 75 75 75 74 75 74 74 74 74 74
70 72 70 71 72 72 74 73 75 76 77 77 76 75 76 76 75 75 74 76 75 75 74 74 73 72 70 71 70 69 69 68 67 68 71 71 69 70 69 69 64 62 65 65 67 66 66 70 71 73 72 71 72 73 75 74 71 74 78 73 73 73 74 76 78 79 79 77 77 77 77 76 75 75 75 75 75 75 75 75 74 74 74 74 74
70 71 69 69 73 72 73 72 74 75 76 76 75 75 76 74 75 75 75 75 75 74 75 74 74 73 71 71 71 70 70 70 70 73 72 71 72 72 69 68 68 65 62 63 65 65 68 73 68 72 74 73 74 74 73 74 74 74 74 74 71 72 72 74 76 77 78 78 77 77 77 77 77 77 75 75 75 75 75 75 75 75 75 74 74
70 68 69 68 71 76 72 72 73 74 75 75 75 74 76 75 75 75 75 75 75 76 75 74 74 73 72 71 73 71 71 73 72 73 73 71 73 73 71 70 69 67 65 63 64 66 65 70 69 70 73 71 72 72 73 73 74 74 74 74 72 72 72 73 74 74 75 76 77 77 77 77 77 77 77 77 76 75 75 75 75 75 75 75 75
70 71 68 69 69 72 73 73 73 74 74 74 75 74 74 74 74 75 75 75 75 76 76 76 74 73 71 70 71 71 72 71 72 71 72 71 71 73 70 71 71 70 68 67 64 67 67 66 70 70 71 73 73 72 72 72 73 72 71 74 73 73 72 73 73 73 73 74 74 76 77 77 77 77 77 77 77 77 77 76 75 75 74 74 75
68 68 70 69 69 69 70 71 71 73 73 73 74 74 74 74 73 74 73 74 74 74 74 73 71 70 72 71 73 73 72 72 70 69 69 70 71 72 70 70 71 71 71 68 66 67 71 67 66 67 69 72 73 72 73 70 69 73 73 74 72 73 72 72 73 73 73 73 73 73 74 75 76 76 77 77 77 77 77 77 77 76 75 75 75
68 68 68 69 70 69 69 69 68 69 72 72 72 74 74 74 74 74 73 75 74 74 75 74 74 74 73 73 74 73 72 71 70 69 68 68 71 72 70 71 71 71 69 69 67 67 70 72 69 68 70 70 72 70 69 68 70 70 74 74 72 71 71 71 71 72 72 72 72 72 72 72 72 73 74 76 76 77 77 77 77 76 76 76 76
68 68 68 67 68 70 68 69 68 68 70 71 72 72 73 74 74 74 73 73 74 75 75 74 75 74 73 72 73 74 74 71 70 70 69 69 69 68 70 69 69 69 70 68 67 69 69 73 74 74 71 70 70 71 71 69 70 73 73 74 71 71 72 72 72 72 72 72 71 71 71 70 70 71 72 73 74 74 75 75 75 74 75 76 75
68 67 68 68 68 68 69 69 70 69 70 70 71 71 73 73 73 72 72 72 72 72 74 74 74 73 72 72 71 70 70 70 72 71 69 68 68 67 68 68 70 71 72 72 73 72 71 72 75 73 73 76 74 73 72 73 76 74 72 72 72 71 73 72 72 71 70 70 70 70 69 69 69 70 70 70 72 71 71 69 68 68 69 69 68
66 68 68 68 70 71 70 71 71 71 72 72 71 72 71 72 73 72 71 71 72 72 72 72 72 72 71 71 72 74 74 73 73 72 72 72 71 71 71 71 70 71 75 75 74 74 73 73 74 74 74 74 75 76 75 74 73 72 72 71 70 70 72 73 72 71 70 70 70 69 69 68 68 68 68 68 67 66 65 65 65 64 64 65 65
66 68 70 70 71 71 70 72 73 72 72 72 72 72 72 73 72 72 72 72 72 72 72 72 75 72 72 73 72 71 72 71 73 72 72 73 73 72 72 74 73 74 75 74 73 74 73 72 74 75 74 73 74 75 76 73 73 72 73 72 71 69 71 72 71 71 70 70 69 69 68 68 68 67 66 65 65 65 64 64 64 63 63 63 63
66 67 69 71 71 73 74 74 74 73 73 73 72 71 71 72 72 71 71 72 72 73 73 73 73 72 73 73 74 73 74 73 73 73 73 73 74 73 73 73 74 74 73 74 74 74 73 73 72 72 73 73 72 73 75 75 73 73 72 72 71 71 71 71 71 71 70 69 68 67 67 67 67 66 66 65 65 65 64 64 63 63 62 61 61
68 69 69 69 71 71 74 74 74 73 73 73 73 73 73 73 73 71 72 72 72 72 73 73 73 72 73 74 72 74 73 72 72 72 71 71 72 72 75 74 74 74 74 74 74 74 73 73 72 72 71 72 72 70 73 75 75 73 72 70 68 73 72 71 71 70 70 69 68 68 67 67 67 66 64 64 65 64 64 63 63 62 62 61 60
70 71 70 70 71 72 72 73 73 74 73 74 74 73 74 74 73 71 72 73 72 73 73 73 73 73 72 73 73 73 72 72 73 73 72 73 73 73 74 74 74 73 73 73 72 73 72 72 72 72 71 71 72 73 73 73 72 71 72 70 68 69 72 73 71 71 70 70 68 67 67 67 66 66 65 65 65 65 64 64 64 64 63 61 61
73 71 71 71 71 73 73 73 73 74 74 73 72 71 72 73 74 75 74 73 73 74 74 73 73 73 72 72 72 74 74 74 75 74 75 74 74 72 74 75 74 74 74 73 74 72 73 72 71 72 72 71 71 71 71 71 71 70 71 71 69 72 74 74 71 72 73 71 70 68 66 65 65 65 65 65 65 65 65 65 65 64 63 61 62
74 75 74 73 72 72 72 73 72 74 75 75 74 75 76 77 76 75 75 75 73 73 74 73 73 73 73 74 75 75 75 76 76 75 75 77 77 77 76 75 75 74 73 72 72 73 73 72 72 72 71 71 71 72 72 72 72 72 72 71 69 72 72 72 73 72 73 71 70 68 67 68 66 64 64 65 65 67 64 64 63 63 62 62 62
74 74 73 72 72 71 71 70 71 72 73 74 71 68 70 73 76 75 74 75 75 75 75 74 74 74 73 73 73 73 74 76 74 75 75 76 77 77 77 77 78 75 74 73 73 73 73 72 72 72 72 71 72 72 71 70 70 70 70 71 71 70 70 68 67 72 74 72 72 70 68 72 69 65 65 64 65 62 61 62 63 63 62 62 62
73 73 72 73 71 70 71 73 73 73 72 69 65 67 68 69 72 74 75 76 75 73 74 73 73 72 71 72 72 73 74 74 74 74 75 76 76 76 76 76 76 76 77 75 74 72 72 72 71 71 71 71 72 72 72 70 69 70 70 70 69 69 68 68 69 69 73 73 71 69 68 71 73 71 65 63 61 61 61 61 62 61 61 61 61
74 73 72 73 71 70 71 72 73 71 67 65 64 65 65 66 69 72 73 74 74 74 73 72 71 71 71 71 72 72 73 74 75 74 74 75 76 76 75 75 76 76 72 72 74 75 73 73 72 71 72 72 72 72 72 71 75 71 71 69 70 69 68 68 69 72 73 75 72 67 66 68 71 70 62 61 59 60 61 62 62 62 61 61 61
72 73 73 73 72 71 71 72 71 66 64 64 62 63 63 64 66 70 72 73 74 74 72 71 71 71 71 71 71 71 72 72 72 73 74 75 74 74 73 73 74 76 76 73 72 73 75 74 73 72 73 73 72 73 75 74 72 72 72 70 70 70 70 69 70 72 73 74 71 71 69 68 70 69 65 63 62 61 61 60 61 61 61 60 60
72 72 73 73 73 73 72 72 67 62 61 60 60 60 61 62 64 69 71 73 72 72 72 72 72 72 72 72 71 70 71 71 71 72 74 75 74 74 73 73 73 73 73 74 76 75 74 75 74 73 73 73 72 73 75 74 73 73 74 74 72 70 71 72 72 73 74 75 73 69 67 70 71 69 67 65 63 61 60 59 60 60 60 59 59
72 72 72 73 73 72 72 69 63 60 56 56 57 57 58 59 63 69 71 73 72 72 72 72 72 72 72 71 70 70 70 71 70 69 71 73 73 73 72 72 72 72 73 75 70 71 74 72 71 71 72 73 69 71 70 71 73 73 73 73 74 73 72 71 71 73 73 72 73 70 69 68 70 69 68 65 60 59 61 60 60 61 60 59 59
72 72 71 72 72 72 72 66 61 56 54 55 54 55 56 57 65 70 73 73 72 72 72 72 72 72 72 70 69 69 71 66 64 60 65 73 72 73 72 72 72 72 72 73 71 70 69 67 65 66 66 65 65 65 64 66 70 71 70 69 70 71 69 68 70 70 69 71 73 72 70 68 69 69 68 64 60 61 60 60 60 61 60 59 58
71 72 72 72 72 71 68 62 57 54 54 55 54 54 54 56 64 69 73 73 72 71 72 72 73 72 72 74 72 65 63 62 59 59 64 69 69 70 72 72 72 71 71 72 72 72 70 69 68 67 66 67 67 67 67 65 66 69 70 69 70 71 68 68 67 67 68 69 72 73 68 69 69 70 68 67 64 62 60 60 60 59 59 58 57
71 71 72 71 68 66 64 62 62 57 57 57 53 53 53 55 63 68 71 71 73 72 71 71 72 71 69 70 70 67 63 61 57 58 61 67 65 66 67 68 70 70 66 65 68 70 71 71 71 72 72 72 73 72 73 69 70 73 71 70 70 70 69 67 67 66 65 67 71 72 69 70 68 69 69 65 62 64 62 62 61 58 58 58 57